KE0YJJ-14 Weather Reports


time (UTC)temp
C
wind
direction
speed
KPH
gust
KPH
rain 1hr
cm
rain 24hr
cm
rain mn
cm
humidity
%
barometer
mb
20260906175643 24 57 6.4 11.3 0.00 0.00 0.00 62
20260906175138 25 74 3.2 4.8 0.00 0.00 0.00 63
20260906174636 25 55 6.4 9.7 0.00 0.00 0.00 63
20260906174131 25 80 4.8 4.8 0.00 0.00 0.00 61
20260906173626 24 72 4.8 8.0 0.00 0.00 0.00 59
20260906173122 25 52 11.3 12.9 0.00 0.00 0.00 59
20260906172616 25 52 11.3 12.9 0.00 0.00 0.00 56
20260906172112 24 64 9.7 11.3 0.00 0.00 0.00 57
20260906171611 24 64 9.7 11.3 0.00 0.00 0.00 57
20260906171106 24 64 9.7 11.3 0.00 0.00 0.00 59
20260906170602 24 44 8.0 14.5 0.00 0.00 0.00 60
20260906170056 24 33 8.0 16.1 0.00 0.00 0.00 60
20260906165553 23 47 8.0 11.3 0.00 0.00 0.00 62
20260906165053 23 56 9.7 11.3 0.00 0.00 0.00 62
20260906164552 23 75 6.4 8.0 0.00 0.00 0.00 65
20260906164048 23 66 6.4 9.7 0.00 0.00 0.00 67
20260906163543 23 54 11.3 14.5 0.00 0.00 0.00 69
20260906163039 23 31 11.3 14.5 0.00 0.00 0.00 70
20260906162536 22 32 8.0 9.7 0.00 0.00 0.00 71
20260906162031 22 36 6.4 9.7 0.00 0.00 0.00 75
20260906161526 22 66 8.0 11.3 0.00 0.00 0.00 76
20260906161025 22 62 4.8 8.0 0.00 0.00 0.00 76
20260906160524 22 51 8.0 11.3 0.00 0.00 0.00 75
20260906160023 22 51 8.0 11.3 0.00 0.00 0.00 72
20260906155520 22 47 4.8 4.8 0.00 0.00 0.00 72
20260906155016 22 54 6.4 8.0 0.00 0.00 0.00 71
20260906154512 22 43 8.0 11.3 0.00 0.00 0.00 71
20260906154011 22 43 8.0 11.3 0.00 0.00 0.00 69
20260906153510 22 83 8.0 9.7 0.00 0.00 0.00 71
20260906153005 22 83 8.0 9.7 0.00 0.00 0.00 73
20260906152505 22 83 8.0 9.7 0.00 0.00 0.00 74
20260906152004 21 88 4.8 8.0 0.00 0.00 0.00 74
20260906151500 21 88 4.8 8.0 0.00 0.00 0.00 77
20260906150955 21 88 4.8 8.0 0.00 0.00 0.00 79
20260906150450 21 91 3.2 8.0 0.00 0.00 0.00 80
20260906145950 21 82 4.8 11.3 0.00 0.00 0.00 79
20260906145449 21 46 8.0 11.3 0.00 0.00 0.00 79
20260906144943 21 84 4.8 9.7 0.00 0.00 0.00 80
20260906144438 21 53 4.8 9.7 0.00 0.00 0.00 83
20260906143934 21 74 4.8 9.7 0.00 0.00 0.00 85
20260906143429 20 62 3.2 3.2 0.00 0.00 0.00 88
20260906142925 20 43 8.0 14.5 0.00 0.00 0.00 88
20260906142425 20 30 8.0 12.9 0.00 0.00 0.00 89
20260906141920 20 51 8.0 11.3 0.00 0.00 0.00 89
20260906141414 20 40 9.7 12.9 0.00 0.00 0.00 90
20260906140914 20 45 4.8 4.8 0.00 0.00 0.00 90
20260906140409 20 39 4.8 11.3 0.00 0.00 0.00 92
20260906135907 20 65 1.6 4.8 0.00 0.00 0.00 94
20260906135406 20 34 4.8 8.0 0.00 0.00 0.00 94
20260906134902 20 59 4.8 8.0 0.00 0.00 0.00 94
20260906134357 20 26 8.0 11.3 0.00 0.00 0.00 94
20260906133852 20 65 3.2 8.0 0.00 0.00 0.00 95
20260906133348 20 35 9.7 14.5 0.00 0.00 0.00 95
20260906132843 20 29 9.7 12.9 0.00 0.00 0.00 96
20260906132338 20 48 8.0 9.7 0.00 0.00 0.00 96
20260906131834 20 59 8.0 12.9 0.00 0.00 0.00 96
20260906131329 20 66 4.8 9.7 0.00 0.00 0.00 96
20260906130825 20 40 8.0 12.9 0.00 0.00 0.00 97
20260906130324 20 37 8.0 12.9 0.00 0.00 0.00 97
20260906125823 20 43 11.3 11.3 0.00 0.00 0.00 97
20260906125320 20 27 8.0 14.5 0.00 0.00 0.00 97
20260906124816 20 39 8.0 11.3 0.00 0.00 0.00 98
20260906124312 20 64 8.0 12.9 0.00 0.00 0.00 98
20260906123810 20 53 6.4 11.3 0.00 0.00 0.00 98
20260906123305 20 31 9.7 11.3 0.00 0.00 0.00 98
20260906122805 20 64 6.4 16.1 0.00 0.00 0.00 98
20260906122301 20 59 11.3 16.1 0.00 0.00 0.00 98
20260906121757 19 55 6.4 9.7 0.00 0.00 0.00 98
20260906121247 19 54 8.0 9.7 0.00 0.00 0.00 98
20260906120742 19 44 6.4 8.0 0.00 0.00 0.00 98
20260906120239 19 58 1.6 8.0 0.00 0.00 0.00 98
20260906115735 19 66 4.8 4.8 0.00 0.00 0.00 98
20260906115230 19 68 3.2 4.8 0.00 0.00 0.00 98
20260906114728 19 68 1.6 4.8 0.00 0.00 0.00 98
20260906114224 19 57 4.8 9.7 0.00 0.00 0.00 98
20260906113719 19 66 3.2 8.0 0.00 0.00 0.00 98
20260906113219 19 38 3.2 4.8 0.00 0.00 0.00 98
20260906112713 18 35 3.2 4.8 0.00 0.00 0.00 98
20260906112210 18 36 3.2 3.2 0.00 0.00 0.00 98
20260906111709 18 351 4.8 4.8 0.00 0.00 0.00 98
20260906111204 18 63 4.8 4.8 0.00 0.00 0.00 98
20260906110658 18 65 3.2 3.2 0.00 0.00 0.00 98
20260906110154 18 65 0.0 3.2 0.00 0.00 0.00 98
20260906105647 18 65 1.6 1.6 0.00 0.00 0.00 98
20260906105144 18 65 1.6 3.2 0.00 0.00 0.00 98
20260906104643 18 65 0.0 1.6 0.00 0.00 0.00 98
20260906104143 18 65 0.0 0.0 0.00 0.00 0.00 98
20260906103641 18 65 0.0 0.0 0.00 0.00 0.00 98
20260906103136 19 65 0.0 1.6 0.00 0.00 0.00 98
20260906102632 19 65 1.6 1.6 0.00 0.00 0.00 98
20260906102131 19 64 3.2 3.2 0.00 0.00 0.00 98
20260906101631 19 64 1.6 4.8 0.00 0.00 0.00 98
20260906101131 19 39 3.2 3.2 0.00 0.00 0.00 98
20260906100627 19 37 0.0 4.8 0.00 0.00 0.00 98
20260906100122 19 33 1.6 3.2 0.00 0.00 0.00 98
20260906095621 19 34 1.6 4.8 0.00 0.00 0.00 98
20260906095117 19 11 4.8 4.8 0.00 0.00 0.00 98
20260906094616 19 51 4.8 4.8 0.00 0.00 0.00 98
20260906094112 19 33 4.8 4.8 0.00 0.00 0.00 98
20260906093608 19 9 4.8 9.7 0.00 0.00 0.00 98
20260906093103 19 21 4.8 4.8 0.00 0.00 0.00 98
20260906092558 19 338 4.8 4.8 0.00 0.00 0.00 98
20260906092053 19 340 3.2 3.2 0.00 0.00 0.00 98
20260906091549 19 338 3.2 3.2 0.00 0.00 0.00 98
20260906091045 19 345 3.2 4.8 0.00 0.00 0.00 98
20260906090539 19 338 4.8 4.8 0.00 0.00 0.00 98
20260906090034 19 19 4.8 8.0 0.00 0.00 0.00 98
20260906085533 19 6 4.8 8.0 0.00 0.00 0.00 98
20260906085032 19 345 4.8 9.7 0.00 0.00 0.00 98
20260906084527 19 357 6.4 8.0 0.00 0.00 0.00 98
20260906084026 20 0 4.8 8.0 0.00 0.00 0.00 98
20260906083522 20 354 4.8 4.8 0.00 0.00 0.00 98
20260906083021 20 28 8.0 11.3 0.00 0.00 0.00 98
20260906082516 20 11 3.2 8.0 0.00 0.00 0.00 98
20260906082012 20 3 4.8 4.8 0.00 0.00 0.00 98
20260906081508 20 32 4.8 8.0 0.00 0.00 0.00 98
20260906081003 20 22 4.8 8.0 0.00 0.00 0.00 97
20260906080500 20 75 3.2 3.2 0.00 0.00 0.00 97
20260906075955 20 27 4.8 8.0 0.00 0.00 0.00 97
20260906075450 20 74 1.6 1.6 0.00 0.00 0.00 97
20260906074945 20 32 4.8 4.8 0.00 0.00 0.00 97
20260906074444 20 74 3.2 3.2 0.00 0.00 0.00 97
20260906073943 20 74 1.6 3.2 0.00 0.00 0.00 97
20260906073438 20 70 3.2 3.2 0.00 0.00 0.00 97
20260906072934 20 72 3.2 4.8 0.00 0.00 0.00 97
20260906072429 20 72 3.2 4.8 0.00 0.00 0.00 97
20260906071925 20 59 4.8 9.7 0.00 0.00 0.00 97
20260906071421 20 45 3.2 4.8 0.00 0.00 0.00 97
20260906070917 20 35 6.4 8.0 0.00 0.00 0.00 97
20260906070413 20 68 3.2 4.8 0.00 0.00 0.00 97
20260906065908 20 71 3.2 3.2 0.00 0.00 0.00 97
20260906065402 20 71 1.6 4.8 0.00 0.00 0.00 97
20260906064858 20 70 3.2 4.8 0.00 0.00 0.00 97
20260906064355 20 67 3.2 4.8 0.00 0.00 0.00 97
20260906063854 20 69 1.6 3.2 0.00 0.00 0.00 97
20260906063349 20 68 1.6 3.2 0.00 0.00 0.00 97
20260906062844 20 68 1.6 3.2 0.00 0.00 0.00 97
20260906062344 20 68 1.6 3.2 0.00 0.00 0.00 97
20260906061839 20 67 1.6 3.2 0.00 0.00 0.00 97
20260906061336 20 67 1.6 3.2 0.00 0.00 0.00 97
20260906060830 20 67 0.0 0.0 0.00 0.00 0.00 97
20260906060328 20 67 0.0 1.6 0.00 0.00 0.00 97
20260906055824 20 66 3.2 3.2 0.00 0.00 0.00 97
20260906055319 20 34 4.8 4.8 0.00 0.00 0.00 97
20260906054814 20 26 3.2 3.2 0.00 0.00 0.00 97
20260906054309 20 0 1.6 4.8 0.00 0.00 0.00 97
20260906053806 20 34 3.2 4.8 0.00 0.00 0.00 97
20260906053301 20 63 3.2 3.2 0.00 0.00 0.00 97
20260906052756 20 45 1.6 3.2 0.00 0.00 0.00 97
20260906052252 20 349 1.6 1.6 0.00 0.00 0.00 97
20260906051749 20 349 0.0 0.0 0.00 0.00 0.00 97
20260906051249 20 349 0.0 0.0 0.00 0.00 0.00 97
20260906050744 20 349 1.6 1.6 0.00 0.00 0.00 97
20260906050239 20 349 1.6 3.2 0.00 0.00 0.00 97
20260906045738 20 349 0.0 3.2 0.00 0.00 0.00 97
20260906045233 20 349 3.2 3.2 0.00 0.00 0.00 97
20260906044729 20 349 3.2 3.2 0.00 0.00 0.00 97
20260906044224 20 349 1.6 3.2 0.00 0.00 0.00 97
20260906043720 20 349 1.6 4.8 0.00 0.00 0.00 97
20260906043216 20 350 3.2 3.2 0.00 0.00 0.00 97
20260906042715 21 350 1.6 3.2 0.00 0.00 0.00 96
20260906042214 21 352 3.2 3.2 0.00 0.00 0.00 96
20260906041710 21 355 3.2 4.8 0.00 0.00 0.00 97
20260906041205 21 5 4.8 8.0 0.00 0.00 0.00 97
20260906040701 21 1 3.2 3.2 0.00 0.00 0.00 97
20260906040156 21 0 1.6 1.6 0.00 0.00 0.00 96
20260906035651 21 0 1.6 3.2 0.00 0.00 0.00 96
20260906035147 21 1 0.0 1.6 0.00 0.00 0.00 96
20260906034641 21 1 1.6 1.6 0.00 0.00 0.00 96
20260906034135 21 1 1.6 1.6 0.00 0.00 0.00 96
20260906033631 21 1 0.0 0.0 0.00 0.00 0.00 96
20260906033126 21 1 0.0 0.0 0.00 0.00 0.00 96
20260906032623 21 1 0.0 0.0 0.00 0.00 0.00 96
20260906032123 21 1 0.0 0.0 0.00 0.00 0.00 96
20260906031618 21 1 0.0 0.0 0.00 0.00 0.00 95
20260906031114 21 1 0.0 0.0 0.00 0.00 0.00 94
20260906030612 21 1 0.0 0.0 0.00 0.00 0.00 94
20260906030108 21 1 0.0 0.0 0.00 0.00 0.00 94
20260906025607 21 1 0.0 0.0 0.00 0.00 0.00 94
20260906025106 21 1 0.0 0.0 0.00 0.00 0.00 94
20260906024601 21 1 0.0 0.0 0.00 0.00 0.00 94
20260906024056 21 1 0.0 0.0 0.00 0.00 0.00 94
20260906023552 21 1 0.0 0.0 0.00 0.00 0.00 94
20260906023046 21 1 0.0 0.0 0.00 0.00 0.00 94
20260906022542 21 1 0.0 0.0 0.00 0.00 0.00 95
20260906022037 21 1 0.0 0.0 0.00 0.00 0.00 95
20260906021533 21 1 0.0 1.6 0.00 0.00 0.00 94
20260906021031 21 1 0.0 0.0 0.00 0.00 0.00 94
20260906020531 21 1 0.0 0.0 0.00 0.00 0.00 94
20260906020030 21 1 0.0 0.0 0.00 0.00 0.00 94
20260906015529 21 1 1.6 1.6 0.00 0.00 0.00 94
20260906015024 21 1 1.6 3.2 0.00 0.00 0.00 94
20260906014519 22 2 3.2 3.2 0.00 0.00 0.00 94
20260906014015 22 2 3.2 3.2 0.00 0.00 0.00 93
20260906013510 22 1 3.2 3.2 0.00 0.00 0.00 93
20260906013006 22 1 0.0 0.0 0.00 0.00 0.00 92
20260906012501 22 1 1.6 1.6 0.00 0.00 0.00 92
20260906011959 22 1 0.0 1.6 0.00 0.00 0.00 91
20260906011455 22 1 0.0 0.0 0.00 0.00 0.00 90
20260906010950 22 1 0.0 0.0 0.00 0.00 0.00 90
20260906010445 22 1 0.0 0.0 0.00 0.00 0.00 90
20260906005942 22 2 1.6 3.2 0.00 0.00 0.00 90
20260906005441 22 2 1.6 3.2 0.00 0.00 0.00 90
20260906004939 22 2 1.6 3.2 0.00 0.00 0.00 90
20260906004434 22 2 1.6 3.2 0.00 0.00 0.00 89
20260906003930 22 1 1.6 1.6 0.00 0.00 0.00 89
20260906003430 22 1 0.0 1.6 0.00 0.00 0.00 89
20260906002926 22 3 3.2 3.2 0.00 0.00 0.00 88
20260906002425 22 3 3.2 3.2 0.00 0.00 0.00 87
20260906001920 23 5 4.8 4.8 0.00 0.00 0.00 87
20260906001416 23 24 4.8 4.8 0.00 0.00 0.00 86
20260906000911 23 24 4.8 4.8 0.00 0.00 0.00 85
20260906000406 23 23 6.4 9.7 0.00 0.00 0.00 84
20260905235901 23 21 4.8 8.0 0.00 0.00 0.00 83
20260905235355 23 32 4.8 4.8 0.00 0.00 0.00 83
20260905234850 23 355 3.2 4.8 0.00 0.00 0.00 82
20260905234345 24 22 4.8 4.8 0.00 0.00 0.00 81
20260905233840 24 32 3.2 8.0 0.00 0.00 0.00 80
20260905233335 25 47 6.4 9.7 0.00 0.00 0.00 80
20260905232834 25 47 6.4 9.7 0.00 0.00 0.00 79
20260905232331 24 345 8.0 9.7 0.00 0.00 0.00 79
20260905231826 24 345 8.0 9.7 0.00 0.00 0.00 79
20260905231321 25 30 11.3 12.9 0.00 0.00 0.00 79
20260905230818 24 28 4.8 4.8 0.00 0.00 0.00 79
20260905230315 24 15 11.3 16.1 0.00 0.00 0.00 80
20260905225815 24 9 12.9 16.1 0.00 0.00 0.00 80
20260905225310 24 3 12.9 14.5 0.00 0.00 0.00 81
20260905224810 24 49 6.4 14.5 0.00 0.00 0.00 81
20260905224305 24 353 6.4 12.9 0.00 0.00 0.00 81
20260905223800 24 51 11.3 16.1 0.00 0.00 0.00 81
20260905223258 24 7 9.7 25.7 0.00 0.00 0.00 81
20260905222753 24 348 12.9 17.7 0.00 0.00 0.00 80
20260905222252 25 356 12.9 24.1 0.00 0.00 0.00 81
20260905221748 25 32 9.7 14.5 0.00 0.00 0.00 81
20260905221244 25 8 8.0 14.5 0.00 0.00 0.00 82
20260905220740 25 317 4.8 8.0 0.00 0.00 0.00 81
20260905220236 25 354 6.4 11.3 0.00 0.00 0.00 82
20260905215735 25 353 6.4 20.9 0.00 0.00 0.00 82
20260905215231 25 340 16.1 22.5 0.00 0.00 0.00 81
20260905214722 25 10 8.0 9.7 0.00 0.00 0.00 80
20260905214217 25 358 6.4 11.3 0.00 0.00 0.00 80
20260905213712 25 6 8.0 14.5 0.00 0.00 0.00 79
20260905213208 25 343 8.0 14.5 0.00 0.00 0.00 79
20260905212702 25 350 12.9 14.5 0.00 0.00 0.00 80
20260905212202 25 8 8.0 22.5 0.00 0.00 0.00 79
20260905211656 25 14 9.7 12.9 0.00 0.00 0.00 80
20260905211152 25 353 6.4 12.9 0.00 0.00 0.00 80
20260905210649 25 338 6.4 12.9 0.00 0.00 0.00 81
20260905210148 25 346 8.0 14.5 0.00 0.00 0.00 80
20260905205648 25 311 4.8 9.7 0.00 0.00 0.00 79
20260905205147 25 326 8.0 9.7 0.00 0.00 0.00 79
20260905204646 25 285 4.8 17.7 0.00 0.00 0.00 78
20260905204142 25 344 8.0 12.9 0.00 0.00 0.00 78
20260905203637 25 327 6.4 12.9 0.00 0.00 0.00 78
20260905203133 25 342 6.4 12.9 0.00 0.00 0.00 77
20260905202628 25 303 4.8 4.8 0.00 0.00 0.00 76
20260905202123 25 316 4.8 12.9 0.00 0.00 0.00 75
20260905201619 25 326 4.8 9.7 0.00 0.00 0.00 74
20260905201118 25 32 8.0 9.7 0.00 0.00 0.00 75
20260905200614 25 20 3.2 4.8 0.00 0.00 0.00 73
20260905200108 25 342 3.2 11.3 0.00 0.00 0.00 73
20260905195602 25 3 4.8 11.3 0.00 0.00 0.00 73
20260905195057 25 19 4.8 4.8 0.00 0.00 0.00 72
20260905194557 25 349 3.2 3.2 0.00 0.00 0.00 71
20260905194056 25 349 3.2 8.0 0.00 0.00 0.00 70
20260905193551 25 3 1.6 4.8 0.00 0.00 0.00 69
20260905193047 25 351 1.6 4.8 0.00 0.00 0.00 68
20260905192542 26 2 3.2 4.8 0.00 0.00 0.00 66
20260905192038 25 27 3.2 8.0 0.00 0.00 0.00 68
20260905191536 25 3 6.4 8.0 0.00 0.00 0.00 66
20260905191035 25 43 1.6 3.2 0.00 0.00 0.00 67
20260905190534 25 38 4.8 8.0 0.00 0.00 0.00 70
20260905190033 25 353 4.8 4.8 0.00 0.00 0.00 71
20260905185533 25 36 3.2 3.2 0.00 0.00 0.00 67
20260905185033 25 357 4.8 4.8 0.00 0.00 0.00 66
20260905184527 25 24 4.8 9.7 0.00 0.00 0.00 66
20260905184026 25 18 4.8 9.7 0.00 0.00 0.00 64
20260905183525 25 0 8.0 12.9 0.00 0.00 0.00 63
20260905183021 25 33 4.8 11.3 0.00 0.00 0.00 63
20260905182515 25 358 6.4 9.7 0.00 0.00 0.00 63
20260905182009 25 28 6.4 9.7 0.00 0.00 0.00 65
20260905181504 25 16 8.0 11.3 0.00 0.00 0.00 68
20260905181003 25 0 8.0 12.9 0.00 0.00 0.00 66
20260905180458 25 331 8.0 11.3 0.00 0.00 0.00 65